Notices

What's New in latest Release from April 7th, 2021:

- Updated Glossary, including Speed of Maximum Gust, and Total Hourly Precipitation

- Updated national and regional climate services offices contacts and prices information

- Addition of station inventory lists for 1981-2010, 1971-2000, and 1961-1990 Normals.

If you haven't already, please take our survey and provide feedback about our website: https://eccc.sondage-survey.ca/f/LanguageSelection.aspx?s=442ca660-fcf1-47c0-95a9-59707d6fd709

Hourly Data Report for July 24, 2018

OTTAWA INTL A
ONTARIO
Current Station Operator: NAVCAN

45°19'00.000" N
75°40'00.000" W
114.90 m
6106001
71628
YOW

Download Data

Hourly Data (July 2018)
Hourly Data Report for July 24, 2018
TIME
LST
Temp Definition
°C
Dew Point Definition
°C
Rel Hum Definition
%
Precip. Amount Definition
mm

Wind Dir Definition
10's deg

Wind Spd Definition
km/h
Visibility Definition
km
Stn Press Definition
kPa
Hmdx Definition


Wind Chill Definition


Weather Definition


00:00 22.2 21.6 96   9 9 24.1 100.51 31   LegendNANA
01:00 22.7 21.7 94   13 13 24.1 100.46 32   Rain
02:00 22.5 21.5 94   14 13 24.1 100.43 31   LegendNANA
03:00 22.5 21.4 93   14 13 24.1 100.42 31   LegendNANA
04:00 22.3 21.1 93   14 13 24.1 100.40 31   Mostly Cloudy
05:00 22.1 21.1 94   14 12 24.1 100.43 31   LegendNANA
06:00 22.5 21.4 93   13 11 24.1 100.45 31   LegendNANA
07:00 22.5 21.3 93   14 13 16.1 100.45 31   Rain
08:00 23.1 21.7 92   13 17 24.1 100.43 32   Rain
09:00 23.5 21.9 91   15 16 12.9 100.43 33   Rain
10:00 24.6 22.1 86   16 16 24.1 100.43 34   Cloudy
11:00 25.6 22.6 83   16 17 24.1 100.41 35   LegendNANA
12:00 27.0 22.4 76   18 26 24.1 100.38 37   LegendNANA
13:00 27.1 22.0 73   17 22 24.1 100.33 36   Mostly Cloudy
14:00 26.2 21.8 77   17 23 24.1 100.29 35   LegendNANA
15:00 24.1 22.2 89   17 17 16.1 100.29 34   Rain
16:00 23.0 21.7 92   17 15 16.1 100.29 32   Rain
17:00 22.5 21.4 93   18 15 16.1 100.28 31   Rain
18:00 22.1 21.1 94   18 11 12.9 100.29 31   Rain
19:00 21.7 20.9 95   15 10 16.1 100.27 30   Cloudy
20:00 21.8 21.0 95   13 12 16.1 100.24 30   Rain
21:00 21.9 21.2 96   13 12 16.1 100.22 30   Rain
22:00 22.1 21.6 97   13 12 16.1 100.16 31   Rain
23:00 22.3 21.6 96   17 14 12.9 100.12 31   Rain

Notes on Data Quality.

Legend

  • E = Estimated
  • M = Missing
  • NA = Not Available*
  • [empty] = Indicates an unobserved value
Date modified: